GW3809 Weather Reports


Display with metric or nautical units.
time (UTC)temp
F
wind
direction
speed
MPH
gust
MPH
rain 1hr
in
rain 24hr
in
rain mn
in
humidity
%
barometer
mb
20260510034539 78 129 7.0 7.0 0.00 1.72 1.72 87 1012.1
20260510034035 78 140 4.0 5.0 0.00 1.72 1.72 87 1012.1
20260510033530 78 130 4.0 6.0 0.00 1.72 1.72 86 1011.8
20260510033029 78 128 5.0 6.0 0.00 1.72 1.72 86 1011.9
20260510032525 78 139 3.0 6.0 0.00 1.72 1.72 86 1012.0
20260510032020 78 129 3.0 9.0 0.00 1.72 1.72 85 1011.8
20260510031516 78 135 5.0 7.0 0.00 1.72 1.72 85 1011.6
20260510031012 78 138 5.0 8.0 0.00 1.72 1.72 84 1011.6
20260510030507 79 135 9.0 10.0 0.00 1.72 1.72 84 1011.6
20260510030005 79 135 4.0 8.0 0.00 1.72 1.72 84 1011.4
20260510025502 79 132 4.0 5.0 0.00 1.72 1.72 83 1011.2
20260510025000 79 124 6.0 6.0 0.00 1.72 1.72 83 1011.2
20260510024456 79 95 3.0 5.0 0.00 1.72 1.72 82 1011.1
20260510023952 79 150 7.0 8.0 0.00 1.72 1.72 81 1011.1
20260510023449 79 136 4.0 11.0 0.00 1.72 1.72 81 1011.1
20260510022946 80 151 7.0 8.0 0.00 1.72 1.72 80 1011.1
20260510022445 80 106 3.0 5.0 0.00 1.72 1.72 79 1011.1
20260510021944 80 127 7.0 8.0 0.00 1.72 1.72 78 1011.0
20260510021442 80 134 3.0 6.0 0.00 1.72 1.72 78 1010.8
20260510020938 80 103 3.0 6.0 0.00 1.72 1.72 77 1010.8
20260510020432 80 139 3.0 9.0 0.00 1.72 1.72 77 1010.8
20260510015928 80 128 4.0 11.0 0.00 1.72 1.72 76 1010.3
20260510015425 80 132 6.0 8.0 0.00 1.72 1.72 76 1010.5
20260510014919 81 136 7.0 11.0 0.00 1.72 1.72 76 1010.5
20260510014417 81 134 6.0 8.0 0.00 1.72 1.72 76 1010.3
20260510013914 81 129 4.0 10.0 0.00 1.72 1.72 76 1010.2
20260510013408 81 147 2.0 6.0 0.00 1.72 1.72 75 1010.2
20260510012904 81 146 4.0 9.0 0.00 1.72 1.72 75 1010.0
20260510012359 81 140 4.0 8.0 0.00 1.72 1.72 75 1010.1
20260510011854 81 140 7.0 13.0 0.00 1.72 1.72 75 1010.1
20260510011349 81 143 7.0 11.0 0.00 1.72 1.72 75 1009.9
20260510010846 81 138 3.0 12.0 0.00 1.72 1.72 74 1009.9
20260510010343 82 89 4.0 6.0 0.00 1.72 1.72 74 1009.9
20260510005840 82 145 8.0 10.0 0.00 1.72 1.72 74 1009.7
20260510005336 82 132 4.0 8.0 0.00 1.72 1.72 74 1009.7
20260510004834 82 91 4.0 11.0 0.00 1.72 1.72 73 1009.6
20260510004331 82 135 5.0 11.0 0.00 1.72 1.72 73 1009.8
20260510003829 82 138 4.0 14.0 0.00 1.72 1.72 73 1009.6
20260510003326 82 145 5.0 11.0 0.00 1.72 1.72 73 1009.6
20260510002824 82 310 3.0 13.0 0.00 1.72 1.72 73 1009.4
20260510002322 83 124 6.0 11.0 0.00 1.72 1.72 73 1009.5
20260510001818 83 105 5.0 11.0 0.00 1.72 1.72 73 1009.5
20260510001317 83 124 4.0 10.0 0.00 1.72 1.72 72 1009.5
20260510000812 83 144 8.0 10.0 0.00 1.72 1.72 73 1009.5
20260510000311 83 58 4.0 9.0 0.00 1.72 1.72 71 1009.3
20260509235807 83 131 5.0 6.0 0.00 1.72 1.72 72 1009.4
20260509235258 83 122 3.0 7.0 0.00 1.72 1.72 72 1009.4
20260509234754 83 95 2.0 6.0 0.00 1.72 1.72 73 1009.4
20260509234251 84 131 8.0 11.0 0.00 1.72 1.72 72 1009.3
20260509233749 84 114 6.0 10.0 0.00 1.72 1.72 71 1009.3
20260509233246 84 75 6.0 9.0 0.00 1.72 1.72 70 1009.3
20260509232742 84 126 5.0 11.0 0.00 1.72 1.72 69 1009.4
20260509232240 84 96 2.0 6.0 0.00 1.72 1.72 70 1009.2
20260509231736 84 99 4.0 8.0 0.00 1.72 1.72 70 1009.3
20260509231233 85 134 2.0 9.0 0.00 1.72 1.72 70 1009.2
20260509230730 85 142 8.0 9.0 0.00 1.72 1.72 70 1009.1
20260509230227 85 70 6.0 8.0 0.00 1.72 1.72 71 1009.3
20260509225722 85 133 8.0 11.0 0.00 1.72 1.72 70 1009.2
20260509225218 85 134 2.0 10.0 0.00 1.72 1.72 71 1009.3
20260509224714 85 107 3.0 8.0 0.00 1.72 1.72 71 1009.4
20260509224211 85 122 5.0 10.0 0.00 1.72 1.72 71 1009.1
20260509223708 85 113 5.0 8.0 0.00 1.72 1.72 71 1009.2
20260509223205 85 131 4.0 11.0 0.00 1.72 1.72 72 1009.2
20260509222702 86 127 7.0 11.0 0.00 1.72 1.72 69 1009.3
20260509222157 86 39 1.0 6.0 0.00 1.72 1.72 69 1009.2
20260509221648 86 25 5.0 8.0 0.00 1.72 1.72 68 1009.3
20260509221144 86 337 2.0 6.0 0.00 1.72 1.72 68 1009.3
20260509220640 87 79 2.0 5.0 0.00 1.72 1.72 68 1009.2
20260509220136 86 53 4.0 6.0 0.00 1.72 1.72 69 1009.2
20260509215632 87 57 3.0 5.0 0.00 1.72 1.72 69 1009.1
20260509215129 87 28 4.0 6.0 0.00 1.72 1.72 68 1009.2
20260509214626 87 145 3.0 7.0 0.00 1.72 1.72 67 1009.3
20260509214122 87 113 4.0 5.0 0.00 1.72 1.72 67 1009.3
20260509213618 87 57 4.0 5.0 0.00 1.72 1.72 67 1009.3
20260509213110 87 88 2.0 5.0 0.00 1.72 1.72 66 1009.0
20260509212607 88 76 2.0 8.0 0.00 1.72 1.72 66 1009.3
20260509212104 88 142 4.0 4.0 0.00 1.72 1.72 66 1009.5
20260509211600 88 101 1.0 3.0 0.00 1.72 1.72 66 1009.4
20260509211057 88 15 2.0 5.0 0.00 1.72 1.72 66 1009.6
20260509210553 88 37 3.0 4.0 0.00 1.72 1.72 65 1009.4
20260509210050 88 38 3.0 5.0 0.00 1.72 1.72 65 1009.4
20260509205544 88 22 2.0 4.0 0.00 1.72 1.72 66 1009.3
20260509205039 89 355 2.0 4.0 0.00 1.72 1.72 65 1009.5
20260509204536 89 59 2.0 3.0 0.00 1.72 1.72 64 1009.6
20260509204032 89 149 2.0 3.0 0.00 1.72 1.72 64 1009.4
20260509203527 90 7 2.0 3.0 0.00 1.72 1.72 63 1009.6
20260509203027 90 131 2.0 3.0 0.00 1.72 1.72 63 1009.6
20260509202521 89 188 2.0 5.0 0.00 1.72 1.72 63 1009.7
20260509202017 89 74 4.0 5.0 0.00 1.72 1.72 64 1009.6
20260509201512 89 327 4.0 4.0 0.00 1.72 1.72 66 1009.5
20260509201010 89 149 3.0 4.0 0.00 1.72 1.72 66 1009.7
20260509200509 89 359 2.0 4.0 0.00 1.72 1.72 65 1009.8
20260509200006 89 315 2.0 4.0 0.00 1.72 1.72 65 1009.7
20260509195501 88 190 2.0 4.0 0.00 1.72 1.72 66 1009.7
20260509194955 88 139 2.0 6.0 0.00 1.72 1.72 65 1009.8
20260509194452 89 132 5.0 6.0 0.00 1.72 1.72 65 1010.0
20260509193949 89 183 3.0 4.0 0.00 1.72 1.72 65 1010.0
20260509193448 89 27 1.0 3.0 0.00 1.72 1.72 65 1010.1
20260509192945 89 353 1.0 3.0 0.00 1.72 1.72 64 1010.3
20260509192442 88 219 2.0 3.0 0.00 1.72 1.72 66 1010.3
20260509191937 87 155 2.0 3.0 0.00 1.72 1.72 66 1010.4
20260509191432 87 222 1.0 4.0 0.00 1.72 1.72 68 1010.5
20260509190928 87 169 0.0 2.0 0.00 1.72 1.72 65 1010.6
20260509190425 87 162 4.0 6.0 0.00 1.72 1.72 65 1010.5
20260509185923 87 167 3.0 6.0 0.00 1.72 1.72 64 1010.6
20260509185421 87 337 0.0 3.0 0.00 1.72 1.72 63 1010.7
20260509184917 87 159 1.0 6.0 0.00 1.72 1.72 64 1010.8
20260509184415 87 302 2.0 2.0 0.00 1.72 1.72 67 1010.9
20260509183911 86 86 1.0 7.0 0.00 1.72 1.72 66 1010.9
20260509183405 86 157 1.0 2.0 0.00 1.72 1.72 68 1010.9
20260509182902 86 205 2.0 4.0 0.00 1.72 1.72 69 1011.0
20260509182358 86 99 1.0 5.0 0.00 1.72 1.72 67 1011.0
20260509181857 86 29 0.0 4.0 0.00 1.72 1.72 65 1010.8
20260509181353 85 299 3.0 3.0 0.00 1.72 1.72 69 1011.0
20260509180851 85 164 4.0 6.0 0.00 1.72 1.72 68 1011.1
20260509180346 85 139 3.0 7.0 0.00 1.72 1.72 67 1011.0
20260509175843 85 135 5.0 8.0 0.00 1.72 1.72 68 1011.1
20260509175339 85 160 2.0 6.0 0.00 1.72 1.72 70 1011.3
20260509174835 84 160 3.0 6.0 0.00 1.72 1.72 69 1011.1
20260509174331 84 152 3.0 9.0 0.00 1.72 1.72 70 1011.0
20260509173827 84 137 5.0 10.0 0.00 1.72 1.72 70 1011.1
20260509173323 84 158 4.0 8.0 0.00 1.72 1.72 69 1011.3
20260509172819 84 134 6.0 10.0 0.00 1.72 1.72 69 1011.2
20260509172316 84 152 7.0 11.0 0.00 1.72 1.72 69 1011.3
20260509171812 84 144 5.0 11.0 0.00 1.72 1.72 69 1011.4
20260509171308 84 137 5.0 8.0 0.00 1.72 1.72 71 1011.4
20260509170805 84 150 7.0 9.0 0.00 1.72 1.72 70 1011.3
20260509170300 83 146 5.0 11.0 0.00 1.72 1.72 73 1011.3
20260509165800 83 137 5.0 7.0 0.00 1.72 1.72 73 1011.4
20260509165255 82 155 4.0 10.0 0.00 1.72 1.72 74 1011.2
20260509164751 82 140 8.0 11.0 0.00 1.72 1.72 75 1011.1
20260509164242 82 136 7.0 9.0 0.00 1.72 1.72 76 1011.3
20260509163744 81 158 5.0 14.0 0.00 1.72 1.72 76 1011.4
20260509163235 81 150 5.0 11.0 0.00 1.72 1.72 76 1011.3
20260509162733 80 130 6.0 7.0 0.00 1.72 1.72 79 1011.4
20260509162227 79 151 7.0 12.0 0.00 1.72 1.72 78 1011.6
20260509161723 79 126 9.0 12.0 0.00 1.72 1.72 79 1011.6
20260509161220 79 141 4.0 10.0 0.00 1.72 1.72 81 1011.8
20260509160720 78 139 9.0 12.0 0.00 1.72 1.72 81 1011.9
20260509160217 77 137 6.0 6.0 0.00 1.72 1.72 82 1012.0
20260509155712 76 125 6.0 8.0 0.00 1.72 1.72 83 1012.0
20260509155209 76 138 6.0 7.0 0.00 1.72 1.72 86 1011.9
20260509154705 75 138 5.0 10.0 0.00 1.72 1.72 86 1011.9
20260509154202 75 141 5.0 10.0 0.00 1.72 1.72 88 1012.0
20260509153659 74 137 11.0 15.0 0.00 1.72 1.72 88 1012.1
20260509153156 73 134 10.0 13.0 0.00 1.72 1.72 90 1012.0
20260509152651 72 140 7.0 14.0 0.00 1.72 1.72 91 1012.3
20260509152149 72 132 8.0 9.0 0.00 1.72 1.72 95 1012.2
20260509151645 72 115 8.0 9.0 0.00 1.72 1.72 96 1012.2
20260509151143 72 79 4.0 7.0 0.00 1.72 1.72 96 1012.5
20260509150641 72 121 4.0 8.0 0.00 1.72 1.72 97 1012.8
20260509150139 71 138 9.0 11.0 0.00 1.72 1.72 97 1012.7
20260509145635 71 110 3.0 5.0 0.02 1.72 1.72 97 1012.9
20260509145130 70 121 4.0 6.0 0.02 1.72 1.72 97 1012.9
20260509144627 69 123 3.0 7.0 0.17 1.71 1.71 97 1012.7
20260509144124 69 128 8.0 10.0 0.24 1.71 1.71 96 1013.0
20260509143621 69 161 4.0 8.0 0.21 1.69 1.69 96 1013.6
20260509143119 69 141 7.0 9.0 0.40 1.67 1.67 96 1013.5
20260509142613 69 133 2.0 4.0 1.89 1.65 1.65 95 1013.8
20260509142110 69 59 10.0 13.0 3.42 1.57 1.57 94 1014.1
20260509141606 69 324 4.0 8.0 2.93 1.28 1.28 93 1014.7
20260509141103 70 308 11.0 28.0 1.32 0.96 0.96 92 1014.8
20260509140600 71 331 14.0 17.0 0.54 0.78 0.78 92 1014.0
20260509140058 72 320 6.0 8.0 0.12 0.71 0.71 91 1012.8
20260509135554 72 21 5.0 5.0 0.00 0.69 0.69 91 1011.3
20260509135052 71 50 3.0 6.0 0.00 0.69 0.69 92 1011.0
20260509134549 71 63 4.0 6.0 0.00 0.69 0.69 92 1011.5
20260509134047 71 23 0.0 3.0 0.00 0.69 0.69 92 1011.5
20260509133543 72 66 0.0 4.0 0.00 0.69 0.69 91 1011.7
20260509133041 72 68 4.0 4.0 0.00 0.69 0.69 91 1011.8
20260509132539 72 4 1.0 6.0 0.00 0.69 0.69 92 1011.9
20260509132037 72 31 3.0 12.0 0.00 0.69 0.69 92 1011.8
20260509131528 72 39 4.0 6.0 0.00 0.69 0.69 93 1012.0
20260509131025 72 14 3.0 5.0 0.00 0.69 0.69 93 1012.0
20260509130520 72 37 3.0 6.0 0.00 0.69 0.69 93 1011.7
20260509130017 72 110 4.0 5.0 0.00 0.69 0.69 93 1011.7
20260509125513 72 68 3.0 4.0 0.00 0.69 0.69 93 1011.8
20260509125010 72 333 2.0 6.0 0.00 0.69 0.69 93 1011.7
20260509124507 72 42 4.0 6.0 0.00 0.69 0.69 93 1011.6
20260509124004 72 69 4.0 5.0 0.00 0.69 0.69 94 1011.5
20260509123502 73 47 6.0 7.0 0.00 0.69 0.69 94 1011.3
20260509122957 73 43 3.0 8.0 0.00 0.69 0.69 95 1011.1
20260509122454 73 70 5.0 6.0 0.00 0.69 0.69 96 1011.2
20260509121951 73 29 3.0 8.0 0.00 0.69 0.69 96 1010.9
20260509121447 73 76 2.0 7.0 0.00 0.69 0.69 96 1010.9
20260509120945 72 13 3.0 6.0 0.00 0.69 0.69 96 1010.9
20260509120443 72 349 2.0 18.0 0.00 0.69 0.69 96 1011.2
20260509115941 72 37 3.0 11.0 0.00 0.69 0.69 96 1011.2
20260509115438 72 340 6.0 6.0 0.00 0.69 0.69 96 1011.3
20260509114935 71 357 3.0 9.0 0.00 0.69 0.69 96 1011.0
20260509114434 71 353 6.0 11.0 0.02 0.69 0.69 96 1011.2
20260509113933 72 351 10.0 13.0 0.21 0.69 0.69 96 1011.1
20260509113430 71 351 5.0 11.0 0.76 0.69 0.69 96 1011.3
20260509112921 71 341 8.0 9.0 1.65 0.66 0.66 95 1011.2
20260509112419 72 336 4.0 10.0 2.60 0.56 0.56 94 1010.9
20260509111916 74 332 9.0 11.0 1.96 0.34 0.34 93 1011.3
20260509111413 75 336 7.0 16.0 0.52 0.09 0.09 93 1011.3
20260509110910 76 326 9.0 11.0 0.02 0.01 0.01 93 1011.1
20260509110405 76 336 5.0 10.0 0.00 0.01 0.01 93 1010.8
20260509105904 76 35 4.0 5.0 0.00 0.01 0.01 93 1010.5
20260509105402 76 29 4.0 8.0 0.00 0.01 0.01 94 1010.3
20260509104858 76 31 5.0 9.0 0.00 0.01 0.01 94 1010.2
20260509104355 76 49 7.0 11.0 0.00 0.01 0.01 94 1009.9
20260509103853 76 358 2.0 6.0 0.00 0.01 0.01 95 1010.1
20260509103349 76 310 4.0 9.0 0.00 0.01 0.01 95 1009.6
20260509102848 76 16 2.0 8.0 0.00 0.01 0.01 95 1009.6
20260509102345 76 11 2.0 8.0 0.00 0.01 0.01 94 1009.4
20260509101841 76 334 4.0 5.0 0.00 0.01 0.01 95 1009.4
20260509101337 76 342 3.0 6.0 0.00 0.01 0.01 95 1009.0
20260509100835 76 21 1.0 3.0 0.00 0.01 0.01 95 1009.0
20260509100332 76 47 2.0 4.0 0.00 0.01 0.01 95 1009.0
20260509095829 76 350 2.0 3.0 0.00 0.01 0.01 95 1008.9
20260509095326 76 16 2.0 3.0 0.00 0.01 0.01 95 1008.7
20260509094823 76 67 2.0 3.0 0.00 0.01 0.01 95 1008.6
20260509094320 76 89 1.0 2.0 0.00 0.01 0.01 94 1008.4
20260509093817 76 92 1.0 3.0 0.00 0.01 0.01 94 1008.4
20260509093314 76 52 3.0 4.0 0.00 0.01 0.01 94 1008.4
20260509092813 76 307 1.0 3.0 0.00 0.01 0.01 94 1008.5
20260509092311 76 62 2.0 3.0 0.00 0.01 0.01 94 1008.6
20260509091808 76 56 2.0 3.0 0.00 0.01 0.01 94 1008.7
20260509091305 76 324 1.0 1.0 0.00 0.01 0.01 94 1008.9
20260509090802 76 11 1.0 2.0 0.00 0.01 0.01 94 1008.8
20260509090259 76 29 2.0 2.0 0.00 0.01 0.01 94 1008.5
20260509085757 76 95 2.0 2.0 0.00 0.01 0.01 94 1008.6
20260509085254 76 121 2.0 2.0 0.00 0.01 0.01 94 1008.6
20260509084750 76 103 1.0 2.0 0.00 0.01 0.01 93 1008.7
20260509084247 76 24 2.0 3.0 0.00 0.01 0.01 93 1008.6
20260509083745 76 237 0.0 2.0 0.00 0.01 0.01 93 1008.6
20260509083242 76 138 3.0 4.0 0.00 0.01 0.01 93 1008.1
20260509082738 76 137 3.0 6.0 0.00 0.01 0.01 93 1008.2
20260509082235 76 138 0.0 3.0 0.00 0.01 0.01 93 1008.2
20260509081732 76 183 2.0 3.0 0.00 0.01 0.01 93 1008.2
20260509081229 76 189 3.0 5.0 0.00 0.01 0.01 93 1008.0
20260509080727 76 139 6.0 9.0 0.00 0.01 0.01 93 1007.5
20260509080225 77 154 8.0 8.0 0.00 0.01 0.01 93 1007.9
20260509075723 77 144 4.0 4.0 0.00 0.01 0.01 93 1008.2
20260509075220 77 140 3.0 6.0 0.00 0.01 0.01 93 1008.5
20260509074717 77 141 4.0 4.0 0.00 0.01 0.01 92 1008.9
20260509074214 77 154 2.0 4.0 0.00 0.01 0.01 92 1009.3
20260509073710 77 132 3.0 5.0 0.00 0.01 0.01 92 1009.2
20260509073208 77 139 3.0 4.0 0.00 0.01 0.01 92 1009.3
20260509072704 77 176 2.0 5.0 0.00 0.01 0.01 92 1009.2
20260509072201 77 176 3.0 6.0 0.00 0.01 0.01 92 1009.0
20260509071657 77 162 4.0 5.0 0.00 0.01 0.01 92 1009.2
20260509071155 77 145 5.0 7.0 0.00 0.01 0.01 93 1009.2
20260509070651 77 150 6.0 9.0 0.00 0.01 0.01 93 1009.3
20260509070147 77 136 4.0 6.0 0.00 0.01 0.01 92 1009.0
20260509065643 77 129 7.0 8.0 0.00 0.01 0.01 92 1009.2
20260509065140 77 137 5.0 6.0 0.00 0.01 0.01 92 1009.4
20260509064637 77 136 3.0 3.0 0.00 0.01 0.01 92 1009.5
20260509064135 77 143 3.0 3.0 0.00 0.01 0.01 93 1009.6
20260509063631 77 325 1.0 1.0 0.00 0.01 0.01 92 1009.5
20260509063128 77 99 0.0 1.0 0.00 0.01 0.01 92 1009.3
20260509062625 77 70 0.0 1.0 0.00 0.01 0.01 92 1009.3
20260509062117 77 68 0.0 2.0 0.00 0.01 0.01 92 1009.2
20260509061614 77 128 5.0 6.0 0.00 0.01 0.01 92 1009.0
20260509061111 77 130 2.0 4.0 0.00 0.01 0.01 92 1009.2
20260509060609 77 61 0.0 2.0 0.00 0.01 0.01 91 1009.3
20260509060104 77 154 1.0 2.0 0.00 0.01 0.01 91 1009.5
20260509055600 77 124 3.0 5.0 0.00 0.01 0.01 91 1009.3
20260509055056 77 139 3.0 3.0 0.00 0.01 0.01 91 1009.4
20260509054553 77 164 2.0 5.0 0.00 0.01 0.01 91 1009.5
20260509054051 77 133 2.0 5.0 0.00 0.01 0.01 91 1009.5
20260509053549 77 163 2.0 4.0 0.00 0.01 0.01 91 1009.7
20260509053046 77 149 2.0 5.0 0.05 0.01 0.01 90 1009.8
20260509052544 78 117 4.0 6.0 0.00 0.00 0.00 90 1009.7
20260509052042 78 174 3.0 5.0 0.00 0.00 0.00 89 1009.7
20260509051539 78 133 6.0 9.0 0.00 0.00 0.00 88 1009.4
20260509051036 78 131 6.0 7.0 0.00 0.00 0.00 88 1009.9
20260509050533 78 128 5.0 6.0 0.00 0.00 0.00 87 1010.3
20260509050029 79 196 4.0 7.0 0.00 0.09 0.09 86 1010.7
20260509045526 79 195 6.0 6.0 0.00 0.09 0.09 85 1010.5
20260509045023 79 161 2.0 8.0 0.00 0.09 0.09 85 1010.3
20260509044520 79 179 4.0 6.0 0.00 0.09 0.09 85 1010.1
20260509044013 79 172 3.0 6.0 0.00 0.09 0.09 84 1010.2
20260509043508 79 176 4.0 6.0 0.00 0.09 0.09 84 1010.1
20260509043005 79 173 4.0 6.0 0.00 0.09 0.09 83 1010.5
20260509042501 79 175 3.0 8.0 0.00 0.09 0.09 83 1010.3
20260509041957 79 168 4.0 11.0 0.00 0.09 0.09 83 1010.0
20260509041454 80 180 3.0 7.0 0.00 0.09 0.09 82 1010.0
20260509040952 80 137 7.0 9.0 0.00 0.09 0.09 82 1009.8
20260509040450 80 133 8.0 13.0 0.00 0.09 0.09 82 1009.8
20260509035946 80 168 5.0 8.0 0.00 0.09 0.09 81 1009.7
20260509035443 80 163 4.0 9.0 0.00 0.09 0.09 81 1009.8
20260509034939 80 151 7.0 11.0 0.00 0.09 0.09 81 1009.7